Location: Betzi
(47.2343°N, 9.5260°E)
Time: 00:13:01
(UTC+00:00)

USA 229 - Pass Details

Date: 27 May 2022
Orbit: 938 x 1274 km, 63.4° (Epoch: 24 May)

Event Time Altitude Azimuth Distance (km) Brightness Sun altitude
Rises 00:16:49 0° 318° (NW) 3,981 7.2 -20.3°
Reaches altitude 10° 00:19:30 10° 314° (NW) 3,065 6.4 -20.2°
Maximum altitude 00:26:39 55° 239° (WSW) 1,442 4.1 -19.8°
Enters shadow 00:30:48 28° 176° (S) 2,162 4.8 -19.6°
